• In Deutschland
  • Länderverzeichnis
  • Für 7 Tage
  • Wassertemperatur
  • Satellitenkarten
  • Wetterkarte
  • Widgets
  • user-avatar
    Anmelden

    Stündliche Wetter Blieskastel

    Heute, 17 Oktober, Dienstag

    Zeit Temperatur Niederschläge Wind Luftdruck Luftfeuchtigkeit
    00:00 +14°C° 0 mm 1 m/S 743 mmHg 76%
    01:00 +13°C° 0 mm 1 m/S 743 mmHg 77%
    02:00 +13°C° 0 mm 1 m/S 743 mmHg 77%
    03:00 +13°C° 0 mm 1 m/S 743 mmHg 78%
    04:00 +12°C° 0 mm 1 m/S 743 mmHg 79%
    05:00 +12°C° 0 mm 1 m/S 743 mmHg 80%
    06:00 +12°C° 0 mm 1 m/S 743 mmHg 81%
    07:00 +13°C° 0 mm 1 m/S 743 mmHg 75%
    08:00 +15°C° 0 mm 1 m/S 743 mmHg 70%
    09:00 +18°C° 0 mm 1 m/S 744 mmHg 64%
    10:00 +20°C° 0 mm 1 m/S 743 mmHg 62%
    11:00 +21°C° 0 mm 1 m/S 743 mmHg 59%
    12:00 +22°C° 0 mm 1 m/S 743 mmHg 57%
    13:00 +22°C° 0 mm 1 m/S 742 mmHg 59%
    14:00 +22°C° 0 mm 1 m/S 742 mmHg 62%
    15:00 +22°C° 0 mm 1 m/S 741 mmHg 64%
    16:00 +20°C° 0 mm 1 m/S 741 mmHg 69%
    17:00 +18°C° 0 mm 1 m/S 741 mmHg 74%
    18:00 +15°C° 0 mm 1 m/S 740 mmHg 79%
    19:00 +15°C° 0 mm 1 m/S 740 mmHg 79%
    20:00 +14°C° 0 mm 1 m/S 740 mmHg 80%
    21:00 +14°C° 0 mm 1 m/S 740 mmHg 80%
    22:00 +13°C° 0 mm 1 m/S 740 mmHg 79%
    23:00 +13°C° 0 mm 1 m/S 740 mmHg 78%

    Morgen, 18 Oktober, Mittwoch

    Zeit Temperatur Niederschläge Wind Luftdruck Luftfeuchtigkeit
    00:00 +12°C° 0 mm 1 m/S 739 mmHg 78%
    01:00 +12°C° 0 mm 1 m/S 739 mmHg 76%
    02:00 +12°C° 0 mm 1 m/S 739 mmHg 75%
    03:00 +12°C° 0 mm 1 m/S 738 mmHg 74%
    04:00 +11°C° 0 mm 1 m/S 738 mmHg 75%
    05:00 +11°C° 0 mm 1 m/S 738 mmHg 76%
    06:00 +10°C° 0 mm 2 m/S 738 mmHg 76%
    07:00 +12°C° 0 mm 2 m/S 738 mmHg 72%
    08:00 +14°C° 0 mm 2 m/S 739 mmHg 68%
    09:00 +16°C° 0 mm 3 m/S 739 mmHg 64%
    10:00 +18°C° 0 mm 3 m/S 738 mmHg 61%
    11:00 +19°C° 0 mm 3 m/S 738 mmHg 58%
    12:00 +20°C° 0 mm 3 m/S 738 mmHg 55%
    13:00 +20°C° 0 mm 3 m/S 738 mmHg 58%
    14:00 +20°C° 0 mm 2 m/S 737 mmHg 60%
    15:00 +20°C° 0 mm 2 m/S 737 mmHg 63%
    16:00 +18°C° 0 mm 2 m/S 737 mmHg 68%
    17:00 +16°C° 0 mm 1 m/S 737 mmHg 73%
    18:00 +14°C° 0 mm 1 m/S 737 mmHg 79%
    19:00 +14°C° 0 mm 1 m/S 737 mmHg 79%
    20:00 +14°C° 0 mm 1 m/S 737 mmHg 79%
    21:00 +13°C° 0 mm 1 m/S 737 mmHg 79%
    22:00 +13°C° 0 mm 1 m/S 737 mmHg 79%
    23:00 +13°C° 0 mm 1 m/S 737 mmHg 78%

    übermorgen, 19 Oktober, Donnerstag

    Zeit Temperatur Niederschläge Wind Luftdruck Luftfeuchtigkeit
    00:00 +12°C° 0 mm 1 m/S 737 mmHg 78%
    01:00 +12°C° 0 mm 1 m/S 737 mmHg 78%
    02:00 +12°C° 0 mm 1 m/S 736 mmHg 77%
    03:00 +12°C° 0 mm 1 m/S 736 mmHg 77%
    04:00 +12°C° 0 mm 1 m/S 736 mmHg 78%
    05:00 +11°C° 0 mm 1 m/S 736 mmHg 78%
    06:00 +11°C° 0 mm 1 m/S 736 mmHg 79%
    07:00 +13°C° 0 mm 2 m/S 736 mmHg 73%
    08:00 +15°C° 0 mm 2 m/S 737 mmHg 68%
    09:00 +17°C° 0 mm 3 m/S 737 mmHg 63%
    10:00 +18°C° 0 mm 3 m/S 737 mmHg 60%
    11:00 +19°C° 0 mm 3 m/S 737 mmHg 58%
    12:00 +19°C° 0 mm 3 m/S 737 mmHg 56%
    13:00 +19°C° 0 mm 3 m/S 736 mmHg 58%
    14:00 +19°C° 0 mm 3 m/S 736 mmHg 60%
    15:00 +19°C° 0 mm 2 m/S 736 mmHg 61%
    16:00 +18°C° 0 mm 2 m/S 736 mmHg 64%
    17:00 +17°C° 0 mm 2 m/S 736 mmHg 67%
    18:00 +16°C° 0 mm 2 m/S 736 mmHg 69%
    19:00 +16°C° 0 mm 2 m/S 736 mmHg 69%
    20:00 +16°C° 0 mm 2 m/S 736 mmHg 68%
    21:00 +16°C° 0 mm 2 m/S 736 mmHg 68%
    22:00 +16°C° 0 mm 3 m/S 736 mmHg 68%
    23:00 +16°C° 0 mm 3 m/S 736 mmHg 67%

    20 Oktober, Freitag

    Zeit Temperatur Niederschläge Wind Luftdruck Luftfeuchtigkeit
    00:00 +16°C° 0 mm 3 m/S 736 mmHg 67%
    01:00 +14°C° 0 mm 4 m/S 736 mmHg 70%
    02:00 +14°C° 0 mm 4 m/S 736 mmHg 73%
    03:00 +14°C° 0 mm 4 m/S 736 mmHg 75%
    04:00 +14°C° 0 mm 4 m/S 736 mmHg 78%
    05:00 +13°C° 0 mm 4 m/S 736 mmHg 80%
    06:00 +13°C° 0 mm 4 m/S 737 mmHg 83%
    07:00 +14°C° 0 mm 5 m/S 737 mmHg 80%
    08:00 +15°C° 0 mm 5 m/S 738 mmHg 78%
    09:00 +16°C° 0 mm 6 m/S 738 mmHg 75%
    10:00 +16°C° 0 mm 6 m/S 738 mmHg 73%
    11:00 +17°C° 0 mm 5 m/S 738 mmHg 71%
    12:00 +19°C° 0 mm 5 m/S 738 mmHg 70%
    13:00 +19°C° 0 mm 4 m/S 738 mmHg 71%
    14:00 +19°C° 0 mm 3 m/S 738 mmHg 72%
    15:00 +19°C° 0 mm 2 m/S 738 mmHg 73%
    16:00 +17°C° 0 mm 2 m/S 738 mmHg 78%
    17:00 +16°C° 0 mm 2 m/S 738 mmHg 82%
    18:00 +15°C° 0 mm 1 m/S 738 mmHg 87%
    19:00 +15°C° 0 mm 2 m/S 738 mmHg 88%
    20:00 +14°C° 0 mm 2 m/S 738 mmHg 88%
    21:00 +14°C° 0 mm 2 m/S 738 mmHg 89%
    22:00 +14°C° 0 mm 2 m/S 738 mmHg 87%
    23:00 +14°C° 0 mm 2 m/S 738 mmHg 85%

    21 Oktober, Samstag

    Zeit Temperatur Niederschläge Wind Luftdruck Luftfeuchtigkeit
    00:00 +13°C° 0 mm 3 m/S 737 mmHg 84%
    01:00 +13°C° 0 mm 3 m/S 737 mmHg 81%
    02:00 +13°C° 0 mm 3 m/S 737 mmHg 79%
    03:00 +14°C° 0 mm 3 m/S 737 mmHg 77%
    04:00 +14°C° 0 mm 3 m/S 737 mmHg 78%
    05:00 +14°C° 0 mm 4 m/S 737 mmHg 78%
    06:00 +14°C° 0 mm 4 m/S 736 mmHg 79%
    07:00 +14°C° 0,4 mm 4 m/S 737 mmHg 80%
    08:00 +15°C° 0,4 mm 5 m/S 737 mmHg 81%
    09:00 +15°C° 0,4 mm 5 m/S 737 mmHg 82%
    10:00 +15°C° 1,4 mm 5 m/S 737 mmHg 84%
    11:00 +15°C° 1,4 mm 5 m/S 737 mmHg 86%
    12:00 +15°C° 1,4 mm 5 m/S 737 mmHg 88%
    13:00 +14°C° 0,3 mm 5 m/S 737 mmHg 89%
    14:00 +14°C° 0,3 mm 4 m/S 737 mmHg 90%
    15:00 +13°C° 0,3 mm 4 m/S 737 mmHg 90%
    16:00 +13°C° 0,1 mm 4 m/S 738 mmHg 90%
    17:00 +13°C° 0,1 mm 4 m/S 738 mmHg 89%
    18:00 +12°C° 0,1 mm 4 m/S 738 mmHg 88%
    19:00 +12°C° 0 mm 4 m/S 738 mmHg 88%
    20:00 +11°C° 0 mm 4 m/S 738 mmHg 88%
    21:00 +10°C° 0 mm 5 m/S 738 mmHg 89%
    22:00 +10°C° 0,1 mm 5 m/S 738 mmHg 89%
    23:00 +10°C° 0,1 mm 5 m/S 739 mmHg 89%

    22 Oktober, Sonntag

    Zeit Temperatur Niederschläge Wind Luftdruck Luftfeuchtigkeit
    00:00 +9°C° 0,1 mm 5 m/S 739 mmHg 89%
    01:00 +9°C° 0,1 mm 5 m/S 739 mmHg 89%
    02:00 +9°C° 0,1 mm 5 m/S 738 mmHg 90%
    03:00 +8°C° 0,1 mm 4 m/S 738 mmHg 90%
    04:00 +8°C° 0 mm 4 m/S 738 mmHg 90%
    05:00 +7°C° 0 mm 5 m/S 738 mmHg 90%
    06:00 +7°C° 0 mm 5 m/S 738 mmHg 91%
    07:00 +7°C° 0 mm 5 m/S 739 mmHg 86%
    08:00 +8°C° 0 mm 6 m/S 739 mmHg 81%
    09:00 +9°C° 0 mm 7 m/S 739 mmHg 77%
    10:00 +9°C° 0,1 mm 7 m/S 739 mmHg 73%
    11:00 +10°C° 0,1 mm 7 m/S 740 mmHg 68%
    12:00 +10°C° 0,1 mm 7 m/S 740 mmHg 64%
    13:00 +10°C° 0 mm 7 m/S 740 mmHg 64%
    14:00 +10°C° 0 mm 6 m/S 740 mmHg 64%
    15:00 +10°C° 0 mm 6 m/S 740 mmHg 64%
    16:00 +9°C° 0 mm 6 m/S 740 mmHg 65%
    17:00 +9°C° 0 mm 6 m/S 740 mmHg 67%
    18:00 +8°C° 0 mm 5 m/S 741 mmHg 69%
    19:00 +8°C° 0 mm 6 m/S 741 mmHg 71%
    20:00 +8°C° 0 mm 6 m/S 741 mmHg 74%
    21:00 +8°C° 0 mm 6 m/S 741 mmHg 76%
    22:00 +8°C° 0,2 mm 6 m/S 741 mmHg 79%
    23:00 +8°C° 0,2 mm 6 m/S 741 mmHg 83%
    Mehr zeigen